Regional Weather Roundup
Issued by NWS

Home | Current Version | Previous Version | Graphics & Text | Print | Product List | Glossary On
Versions: 1 2 3 4 5 6 7 8 9 10 11 12 13 14 15 16 17 18 19 20 21 22 23 24 25 26 27 28 29 30 31 32 33 34 35 36 37 38 39 40 41 42 43 44 45 46 47 48 49 50
000
ASUS43 KDTX 311801
RWRMI
MICHIGAN HOURLY REGIONAL WEATHER ROUNDUP
NATIONAL WEATHER SERVICE DETROIT/PONTIAC MI
100 PM EST SAT JAN 31 2015

NOTE: "FAIR" INDICATES FEW OR NO CLOUDS BELOW 12,000 FEET WITH NO
SIGNIFICANT WEATHER AND/OR OBSTRUCTION TO VISIBILITY.

MIZ047>049-052>055-059>063-066>070-074>076-081>083-311900-
SOUTHEAST LOWER MICHIGAN

CITY           SKY/WX    TMP DP  RH WIND       PRES   REMARKS
ADRIAN         SUNNY     31  20  63 W9        30.22F WCI  23
6HR MIN TEMP:  16; 6HR MAX TEMP:  31;

ALMA           CLOUDY    32  24  73 SW10G17   30.16F WCI  23
ANN ARBOR      SUNNY     33  20  58 W9        30.20F WCI  25
BAD AXE        CLOUDY    26  20  76 SW7       30.16F WCI  19
CARO           CLOUDY    29  21  71 W8        30.16F WCI  21
DETROIT CITY   SUNNY     31  19  61 SW12      30.22F WCI  22
6HR MIN TEMP:  18; 6HR MAX TEMP:  31;

DETROIT        MOSUNNY   33  20  58 SW9       30.22F WCI  25
6HR MIN TEMP:  14; 6HR MAX TEMP:  33;

FLINT          PTSUNNY   32  21  64 SW12      30.17F WCI  23
6HR MIN TEMP:  19; 6HR MAX TEMP:  32;

GROSSE ILE     SUNNY     32  19  59 SW12      30.21F WCI  23
HILLSDALE      PTSUNNY   33  20  59 W10       30.18F WCI  24
6HR MIN TEMP:  16; 6HR MAX TEMP:  33;

HOWELL         MOSUNNY   31  20  64 SW10      30.17F WCI  22

CITY           SKY/WX    TMP DP  RH WIND       PRES   REMARKS
JACKSON        CLOUDY    31  19  61 SW10      30.18F WCI  22
6HR MIN TEMP:  17; 6HR MAX TEMP:  31;

LAMBERTVILLE   SUNNY     34  21  60 W10       30.23F WCI  26
LANSING        CLOUDY    31  21  66 W10       30.18F WCI  22
6HR MIN TEMP:  19; 6HR MAX TEMP:  31;

LAPEER         FAIR      30  20  65 SW12      30.16F WCI  21
MASON          CLOUDY    31  20  64 W7        30.18F WCI  24
MONROE         SUNNY     32  21  64 W14       30.21F WCI  22
MT. CLEMENS    MOSUNNY   30  19  61 SW10      30.18F WCI  21
6HR MIN TEMP:  13; 6HR MAX TEMP:  31;

PONTIAC        PTSUNNY   29  19  66 SW8       30.17F WCI  21
6HR MIN TEMP:  15; 6HR MAX TEMP:  30;

PORT HOPE        N/A     25  16  68 VRB7      30.14F WCI  17
6HR MIN TEMP:  11; 6HR MAX TEMP:  25;

PORT HURON     SUNNY     27  19  74 S9        30.20F WCI  17
TRI CITIES     CLOUDY    30  22  72 SW9       30.17F WCI  22
6HR MIN TEMP:  19; 6HR MAX TEMP:  30;

TROY           SUNNY     32  18  55 SW6       30.21F WCI  27
SAGINAW HB     CLOUDY    30  23  74 SW8       30.17F WCI  23
$$
MIZ043>046-050>051-056>058-064>065-071>073-077>080-311900-
SOUTHWEST LOWER MICHIGAN

CITY           SKY/WX    TMP DP  RH WIND       PRES   REMARKS
BATTLE CREEK   CLOUDY    32  20  61 SW13      30.18F WCI  22
6HR MIN TEMP:  15; 6HR MAX TEMP:  32;

BENTON HARBOR  MOSUNNY   34  23  64 SW16G23   30.20F WCI  24
6HR MIN TEMP:  19; 6HR MAX TEMP:  34;

BIG RAPIDS     CLOUDY    30  24  79 W7        30.12F WCI  23
6HR MIN TEMP:  18; 6HR MAX TEMP:  30;

COLDWATER      CLOUDY    32  22  64 SW13      30.19F WCI  23
6HR MIN TEMP:  18; 6HR MAX TEMP:  33;

FREMONT        CLOUDY    30  22  72 CALM      30.15S
HOLLAND        CLOUDY    34  25  69 SW15      30.17F WCI  24
6HR MIN TEMP:  22; 6HR MAX TEMP:  34;

GRAND RAPIDS   PTSUNNY   32  24  72 SW13      30.17F WCI  22
6HR MIN TEMP:  20; 6HR MAX TEMP:  32;

IONIA          CLOUDY    32  26  77 SW13G18   30.15F WCI  22
KALAMAZOO      MOSUNNY   32  20  61 SW9       30.19F WCI  24
6HR MIN TEMP:  15; 6HR MAX TEMP:  32;

LUDINGTON      CLOUDY    31  21  67 NW7       30.17  WCI  24
6HR MIN TEMP:  31; 6HR MAX TEMP:  31;

MARSHALL       CLOUDY    31  20  64 SW10      30.18F WCI  22
MOUNT PLEASANT CLOUDY    31  22  71 SW3       30.14F
6HR MIN TEMP:  19; 6HR MAX TEMP:  31;

MUSKEGON       PTSUNNY   33  24  69 W13       30.17S WCI  24
6HR MIN TEMP:  28; 6HR MAX TEMP:  34;

SOUTH HAVEN    MOSUNNY   34  25  68 SW14G20   30.19S WCI  25
$$
MIZ016>042-311900-
NORTHERN LOWER MICHIGAN

CITY           SKY/WX    TMP DP  RH WIND       PRES   REMARKS
ALPENA         CLOUDY    24  17  74 SW8       30.11F WCI  15
6HR MIN TEMP:  13; 6HR MAX TEMP:  24; 6HR PCP:  0.01;

BEAVER ISLAND  CLOUDY    26  20  77 CALM      30.12S
6HR MIN TEMP:  23; 6HR MAX TEMP:  27;

BELLAIRE       CLOUDY    28  20  75 W6        30.14S WCI  21
6HR MIN TEMP:  19; 6HR MAX TEMP:  28;

CADILLAC       CLOUDY    27  20  77 W12G17    30.09F WCI  16
CHARLEVOIX     CLOUDY    26  19  76 W10       30.16S WCI  16
6HR MIN TEMP:  18; 6HR MAX TEMP:  26;

FRANKFORT      CLOUDY    27  22  80 NW6       30.15F WCI  21
GAYLORD        CLOUDY    22  19  89 W9        30.07F WCI  12
6HR MIN TEMP:  14; 6HR MAX TEMP:  22;

GRAYLING       CLOUDY    26  19  77 W7        30.10F WCI  18
6HR MIN TEMP:  13; 6HR MAX TEMP:  26;

HARBOR SPRINGS PTSUNNY   25  17  72 W6        30.11S WCI  18
HOUGHTON LAKE  CLOUDY    24  18  77 SW7       30.10F WCI  16
6HR MIN TEMP:  12; 6HR MAX TEMP:  24;

MANISTEE       CLOUDY    28  21  74 NW8       30.16S WCI  20
OSCODA         CLOUDY    24  17  77 SW10      30.14F WCI  13
PELLSTON       PTSUNNY   24  16  71 W14       30.11S WCI  12
6HR MIN TEMP:  15; 6HR MAX TEMP:  25;

TRAVERSE CITY  CLOUDY    27  20  75 W7        30.14S WCI  19
6HR MIN TEMP:  21; 6HR MAX TEMP:  27;

$$
MIZ007>008-015-311900-
EASTERN UPPER MICHIGAN

CITY           SKY/WX    TMP DP  RH WIND       PRES   REMARKS
KINROSS        CLOUDY    25  18  74 W10       30.06F WCI  15
6HR MIN TEMP:  14; 6HR MAX TEMP:  25;

MACKINAC ISLAN CLOUDY    24  16  70 W12       30.08F WCI  13
6HR MIN TEMP:  14; 6HR MAX TEMP:  25;

NEWBERRY       CLOUDY    22  18  85 W9        30.08S WCI  11
6HR MIN TEMP:  15; 6HR MAX TEMP:  22;

S. S. MARIE    LGT SNOW  21  15  78 W5        30.05F WCI  15
6HR MIN TEMP:  10; 6HR MAX TEMP:  21; 6HR PCP: TRACE;

$$
MIZ004>006-011>014-085-311900-
CENTRAL UPPER MICHIGAN

CITY           SKY/WX    TMP DP  RH WIND       PRES   REMARKS
MANISTIQUE     CLOUDY    24  19  80 NW10      30.11F WCI  14
ESCANABA       CLOUDY    27  16  63 NW10      30.15S WCI  17
6HR MIN TEMP:  19; 6HR MAX TEMP:  27;

MENOMINEE      CLOUDY    27  16  63 N7        30.16F WCI  19
6HR MIN TEMP:  21; 6HR MAX TEMP:  27;

SAWYER-GWINN   LGT SNOW  21  16  79 N16       30.12R WCI   7
$$
MIZ001>003-009>011-084-311900-
WESTERN UPPER MICHIGAN

CITY           SKY/WX    TMP DP  RH WIND       PRES   REMARKS
IRON MOUNTAIN  CLOUDY    25  17  72 NW14      30.12S WCI  13
6HR MIN TEMP:  20; 6HR MAX TEMP:  25;

HOUGHTON       FLURRIES  17   8  67 NW17      30.18R WCI   1
6HR MIN TEMP:  17; 6HR MAX TEMP:  22; 6HR PCP: TRACE;

COPPER HARBOR    N/A     18   9  68 NE24G31   30.20R WCI   0
6HR MIN TEMP:  18; 6HR MAX TEMP:  25;

IRONWOOD       CLOUDY    19  16  86 N7        30.18R WCI  10
6HR MIN TEMP:  19; 6HR MAX TEMP:  21;

$$

ABBREVIATIONS USED IN REMARKS
   TC - TEMPERATURE IN CELSIUS
  WCI - WIND CHILL INDEX
   HX - HEAT INDEX
  VSB - VISIBILITY




USA.gov is the U.S. government's official web portal to all federal, state and local government web resources and services.